CAPE
101 66 76 70 30 23 5 1 11 7 1 0 0 0 0 0 0 0 0 1 2 2 2 1 0 0 0 0 0 0 0 0 0 0 0 0 0 0
49 50 50 50 56 28 12 0 0 5 2 0 0 0 0 0 0 0 0 0 0 0 0 0 0 0 0 0 0 0 0 0 0 0 0 0 0 0
0 2 2 3 6 2 0 0 0 0 0 0 1 0 0 0 0 0 0 0 0 0 0 0 0 0 0 0 0 0 0 0 0 0 0 0 0 0
0 0 0 0 0 0 0 0 0 0 0 0 2 1 0 0 0 0 0 0 0 0 0 0 0 0 0 0 0 0 0 0 0 0 0 0 1 1
0 0 0 0 0 0 0 0 0 0 0 0 0 1 0 0 0 0 0 0 0 0 0 0 0 0 0 0 0 0 0 0 0 0 0 0 0 0
0 0 0 1 0 1 0 0 0 0 0 0 0 0 0 0 0 0 0 0 0 0 0 0 0 0 0 0 0 0 0 0 0 0 0 0 0 0
0 0 0 0 0 0 0 0 0 0 0 0 0 0 0 0 0 0 0 0 0 0 0 0 0 0 0 0 0 0 0 0 0 0 0 0 0 0
0 0 0 0 0 0 0 0 0 0 0 0 0 0 0 0 0 0 0 0 0 0 0 0 0 0 0 0 0 0 0 0 0 0 0 0 0 0
0 0 0 0 0 0 0 0 0 0 0 0 0 0 0 0 0 0 0 0 0 0 0 0 0 0 0 0 0 0 0 0 0 0 0 0 0 0
0 0 0 0 0 0 0 0 0 0 0 0 0 0 0 0 0 0 0 0 0 0 0 0 0 0 0 0 0 0 0 0 0 1 0 0 0 0
0 0 0 0 0 0 0 0 0 0 0 0 0 0 0 0 0 0 0 0 0 0 0 0 0 0 0 0 0 0 0 0 0 0 0 0 0 0
0 0 0 0 0 0 0 0 0 0 0 0 0 0 0 0 0 0 0 0 0 0 0 0 0 0 0 0 0 0 0 0 0 0 0 0 0 0
0 0 0 0 0 0 0 0 0 0 0 0 0 0 0 0 0 0 0 0 0 0 0 0 0 0 0 0 0 0 0 0 0 0 0 0 0 0
0 0 0 0 0 0 0 0 0 0 0 0 0 0 0 0 0 0 0 0 0 0 0 0 0 0 1 0 0 0 0 0 0 0 0 0 0 0
0 0 0 0 0 0 0 0 0 0 0 0 0 0 0 0 0 0 0 0 0 0 0 0 0 0 0 1 0 0 2 0 0 0 0 0 0 0
0 0 0 0 0 0 0 0 0 0 0 0 0 0 0 0 0 0 0 0 0 0 0 0 0 0 0 0 0 2 0 0 0 0 0 0 0 0
0 0 0 0 0 0 0 0 0 0 0 0 0 0 0 0 0 0 0 0 1 0 0 0 0 0 0 0 1 2 1 0 0 0 0 0 0 0
0 0 0 0 0 0 0 0 0 0 0 0 0 0 0 0 0 0 0 0 0 0 0 0 0 0 0 0 0 0 0 0 0 0 0 0 0 0
0 0 0 0 0 0 0 0 0 0 0 0 0 0 0 0 0 0 0 0 0 0 0 0 0 0 0 0 0 0 0 0 0 0 0 0 0 0
0 0 0 0 0 0 0 0 0 0 0 0 0 0 0 0 0 0 0 0 0 0 0 0 0 0 0 0 0 0 0 0 0 0 0 0 0 0
0 0 0 0 0 0 0 0 0 0 0 0 0 0 0 0 0 0 0 0 0 0 0 0 0 0 0 0 0 0 0 0 0 0 0 0 0 0
0 0 0 0 0 0 0 0 0 0 0 0 0 0 0 0 0 0 0 0 0 0 0 0 0 0 0 0 0 0 0 0 0 0 0 0 0 1
0 0 0 0 0 0 0 0 0 0 0 0 0 0 0 0 0 0 0 0 0 0 0 0 0 0 0 0 0 0 0 0 0 0 0 0 0 0
CIN
-64 -48 -30 -42 -58 -52 -101 -25 -12 -21 -12 -0 -0 -0 -0 -0 -0 -0 -0 -0 -0 -0 -0 -0 -0 -0 -0 -0 -0 -0 -0 -0 -0 -0 -0 -0 -0 -0
-54 -38 -36 -25 -20 -72 -110 -0 -1 -24 -15 -0 -0 -0 -0 -0 -0 -0 -0 -0 -0 -0 -0 -0 -0 -0 -0 -0 -0 -0 -0 -0 -0 -0 -0 -0 -0 -0
-0 -4 -48 -14 -14 -34 -20 -0 -2 -0 -0 -0 -0 -0 -0 -0 -0 -0 -0 -0 -0 -0 -0 -0 -0 -0 -0 -0 -0 -0 -0 -0 -0 -0 -0 -0 -0 -0
-0 -0 -0 -0 -0 -0 -2 -0 -0 -0 -0 -0 -0 -0 -0 -0 -0 -0 -0 -0 -0 -0 -0 -0 -0 -0 -0 -0 -0 -0 -0 -0 -0 -0 -0 -0 -0 -0
-0 -0 -0 -0 -0 -0 -0 -0 -0 -0 -0 -0 -0 -0 -0 -0 -0 -0 -0 -0 -0 -0 -0 -0 -0 -0 -0 -0 -0 -0 -0 -0 -0 -0 -0 -0 -0 -0
-0 -0 -0 -0 -0 -0 -0 -0 -0 -0 -0 -0 -0 -0 -0 -0 -0 -0 -0 -0 -0 -0 -0 -0 -0 -0 -0 -0 -0 -0 -0 -0 -0 -0 -0 -0 -0 -0
-0 -0 -0 -0 -0 -0 -0 -0 -0 -0 -0 -0 -0 -0 -0 -0 -0 -0 -0 -0 -0 -0 -0 -0 -0 -0 -0 -0 -0 -0 -0 -0 -0 -0 -0 -0 -0 -0
-0 -0 -0 -0 -0 -0 -0 -0 -0 -0 -0 -0 -0 -0 -0 -0 -0 -0 -0 -0 -0 -0 -0 -0 -0 -0 -0 -0 -0 -0 -0 -0 -0 -0 -0 -0 -0 -0
-0 -0 -0 -0 -0 -0 -0 -0 -0 -0 -0 -0 -0 -0 -0 -0 -0 -0 -0 -0 -0 -0 -0 -0 -0 -0 -0 -0 -0 -0 -0 -0 -0 -0 -0 -0 -0 -0
-0 -0 -0 -0 -0 -0 -0 -0 -0 -0 -0 -0 -0 -0 -0 -0 -0 -0 -0 -0 -0 -0 -0 -0 -0 -0 -0 -0 -0 -0 -0 -0 -0 -0 -0 -0 -0 -0
-0 -0 -0 -0 -0 -0 -0 -0 -0 -0 -0 -0 -0 -0 -0 -0 -0 -0 -0 -0 -0 -0 -0 -0 -0 -0 -0 -0 -0 -0 -0 -0 -0 -0 -0 -0 -0 -0
-0 -0 -0 -0 -0 -0 -0 -0 -0 -0 -0 -0 -0 -0 -0 -0 -0 -0 -0 -0 -0 -0 -0 -0 -0 -0 -0 -0 -0 -0 -0 -0 -0 -0 -0 -0 -0 -0
-0 -0 -0 -0 -0 -0 -0 -0 -0 -0 -0 -0 -0 -0 -0 -0 -0 -0 -0 -0 -0 -0 -0 -0 -0 -0 -0 -0 -0 -0 -0 -0 -0 -0 -0 -0 -0 -0
-0 -0 -0 -0 -0 -0 -0 -0 -0 -0 -0 -0 -0 -0 -0 -0 -0 -0 -0 -0 -0 -0 -0 -0 -0 -0 -0 -0 -0 -0 -0 -0 -0 -0 -0 -0 -0 -0
-0 -0 -0 -0 -0 -0 -0 -0 -0 -0 -0 -0 -0 -0 -0 -0 -0 -0 -0 -0 -0 -0 -1 -0 -0 -0 -0 -0 -0 -0 -0 -0 -0 -0 -0 -0 -0 -0
-0 -0 -0 -0 -0 -0 -0 -0 -0 -0 -0 -0 -0 -0 -0 -0 -0 -0 -1 -0 -0 -0 -0 -0 -0 -0 -0 -0 -0 -0 -0 -0 -0 -0 -0 -0 -0 -0
-0 -0 -0 -0 -0 -0 -0 -0 -0 -0 -0 -0 -0 -0 -0 -0 -0 -0 -0 -0 -0 -0 -0 -1 -0 -0 -0 -0 -0 -0 -0 -0 -0 -0 -0 -1 -0 -0
-0 -0 -0 -0 -0 -0 -0 -0 -0 -0 -0 -0 -0 -0 -0 -0 -0 -0 -0 -0 -0 -0 -0 -1 -4 -0 -0 -0 -0 -0 -0 -0 -0 -0 -0 -0 -0 -0
-0 -0 -0 -0 -0 -0 -0 -0 -0 -0 -0 -0 -0 -0 -0 -0 -0 -0 -0 -0 -0 -0 -0 -0 -0 -0 -0 -0 -0 -0 -0 -0 -0 -0 -0 -0 -0 -0
-0 -0 -0 -0 -0 -0 -0 -0 -0 -0 -0 -0 -0 -0 -0 -0 -0 -0 -0 -0 -0 -0 -0 -0 -0 -0 -0 -0 -0 -0 -0 -0 -0 -0 -0 -0 -0 -0
-0 -0 -0 -0 -0 -0 -0 -0 -0 -0 -0 -0 -0 -0 -0 -0 -0 -0 -0 -0 -0 -0 -0 -0 -0 -0 -0 -0 -0 -0 -0 -0 -0 -0 -0 -0 -0 -0
-0 -0 -0 -0 -0 -0 -0 -0 -0 -0 -0 -0 -0 -0 -0 -0 -0 -0 -0 -0 -0 -0 -0 -0 -0 -0 -0 -0 -0 -0 -0 -0 -0 -0 -0 -0 -0 -0
-0 -0 -0 -0 -0 -0 -0 -0 -0 -0 -0 -0 -0 -0 -0 -0 -0 -0 -0 -0 -0 -0 -0 -0 -0 -0 -0 -0 -0 -0 -0 -0 -0 -0 -0 -0 -0 -0
Wind_Speed
32 32 30 22 18 18 18 20 21 25 23 21 22 20 20 19 20 18 17 16 16 15 14 15 14 14 14 16 17 18 18 18 19 19 20 21 21 21
24 25 23 21 21 20 19 19 20 19 24 21 22 21 19 18 18 17 17 16 16 15 15 14 15 15 16 16 16 16 17 17 19 19 21 20 20 21
27 28 25 22 21 21 21 21 17 21 20 22 22 21 21 19 17 16 15 15 17 16 16 15 14 14 14 15 16 16 17 18 19 20 20 20 20 20
26 24 23 21 21 22 18 19 21 18 21 22 22 22 22 19 16 16 16 16 15 15 14 14 13 14 14 15 16 17 17 18 18 19 20 20 20 20
24 23 22 20 21 20 18 19 19 19 20 22 23 21 21 17 17 15 15 15 14 13 14 14 14 15 15 15 15 15 16 17 17 18 18 18 18 18
25 24 22 21 20 19 17 16 16 17 20 21 22 20 19 16 14 13 14 14 14 14 15 15 15 15 16 15 14 15 15 16 16 16 16 17 18 19
23 22 22 20 18 17 17 17 18 18 18 18 19 18 16 14 11 12 14 13 15 16 17 16 15 16 15 13 13 13 13 14 15 15 16 18 19 19
23 22 21 20 18 18 17 17 16 18 16 15 16 14 13 12 11 11 13 14 17 16 16 16 16 16 15 13 12 13 14 15 15 15 16 18 18 19
21 20 19 17 17 17 16 15 17 17 15 15 13 12 11 11 10 13 14 14 15 15 17 18 15 16 14 12 12 13 15 17 16 15 15 17 19 20
18 18 17 17 16 14 13 12 14 15 14 13 10 12 11 12 12 12 12 13 14 15 17 16 17 14 15 15 13 15 17 19 17 15 15 17 21 23
16 16 16 15 13 11 10 11 11 12 12 12 11 11 12 12 12 11 12 12 14 14 16 15 16 16 16 15 15 16 18 17 17 17 18 21 24 24
15 15 14 12 11 10 9 8 9 9 9 11 12 12 13 12 13 13 11 10 13 14 15 15 16 17 17 17 18 18 17 17 17 18 21 22 24 24
13 12 12 10 10 10 10 10 10 8 9 10 11 12 11 12 13 13 13 11 12 14 15 15 15 17 17 19 20 19 19 19 19 20 21 23 25 27
12 11 9 9 10 9 11 10 9 9 10 10 11 11 11 11 11 12 13 14 14 13 14 15 16 16 18 20 20 20 24 22 20 20 23 25 25 26
12 11 9 9 10 11 11 10 10 11 10 11 11 11 11 9 9 12 14 15 16 15 14 14 14 15 15 17 20 22 26 22 22 20 25 25 27 27
11 10 10 11 11 12 12 12 11 11 11 11 12 10 9 10 11 11 13 14 16 16 14 13 13 13 15 16 18 20 20 21 21 24 25 24 24 24
11 10 10 10 12 12 14 13 13 13 12 12 11 9 9 10 10 11 13 14 15 17 18 16 15 14 14 16 19 18 19 19 20 21 24 25 24 23
9 12 14 13 14 16 15 14 13 13 12 12 12 9 9 10 11 12 13 13 15 17 18 18 17 18 20 18 12 16 19 19 19 21 23 24 24 25
12 12 13 13 15 15 14 13 14 13 12 12 11 10 10 11 12 12 13 14 15 16 16 17 17 18 20 21 22 18 17 20 21 23 23 22 22 24
10 13 13 14 15 14 14 15 15 13 12 12 12 12 11 11 13 15 15 16 17 18 18 18 16 15 16 19 24 21 20 20 21 22 23 21 19 20
12 14 16 17 17 17 17 16 14 13 13 14 14 15 14 14 15 16 17 17 18 18 19 18 17 15 17 20 22 22 22 18 17 19 21 21 21 22
17 18 19 19 19 19 18 16 15 15 15 15 17 17 17 16 18 18 18 18 18 18 20 20 18 17 17 19 21 23 23 21 18 17 15 15 17 21
17 19 20 20 20 19 18 17 17 18 17 18 18 19 19 19 18 19 20 19 18 19 20 21 20 18 19 19 20 22 21 21 22 22 19 16 13 13
Wind_Direction
291 294 296 304 303 300 301 306 307 312 312 323 327 334 337 339 340 342 346 348 346 342 342 343 346 344 343 340 340 339 342 345 347 347 347 347 346 346
304 302 304 305 304 302 300 301 305 305 311 322 326 328 335 338 340 341 342 343 343 342 344 345 344 344 342 343 344 346 347 347 347 345 344 346 346 345
305 303 302 303 301 301 303 303 299 305 303 316 322 326 328 330 334 340 341 342 337 339 341 344 345 348 348 348 349 348 348 346 344 343 344 345 343 344
305 304 303 304 300 303 297 301 299 306 307 307 318 322 324 326 330 333 336 338 345 345 349 351 355 353 349 347 346 346 347 346 345 344 344 345 346 346
306 304 302 300 300 301 304 305 301 303 309 311 314 319 323 325 326 332 335 342 346 352 352 351 349 345 345 345 347 348 347 346 346 346 349 352 351 350
304 303 301 300 300 301 303 305 305 306 309 310 314 317 321 324 326 332 331 339 342 347 347 346 346 343 343 344 346 346 349 350 351 353 353 351 349 347
305 305 303 303 301 300 303 303 305 308 310 309 313 318 318 323 324 333 334 338 339 340 342 344 344 346 347 351 356 357 359 358 355 354 352 347 345 344
301 302 302 303 302 302 305 308 309 308 311 313 314 317 318 322 329 334 335 333 333 343 346 346 348 348 351 1 9 11 3 357 355 352 348 344 344 343
300 298 299 302 301 302 307 315 314 316 314 313 315 319 318 323 332 330 332 336 338 346 346 344 352 353 360 11 9 3 357 352 350 348 347 346 344 341
301 297 296 298 301 306 312 320 320 321 321 328 329 322 327 330 329 335 340 342 345 347 348 347 351 356 356 359 3 358 354 352 353 357 356 347 340 335
303 299 298 300 306 313 318 320 324 324 329 330 326 330 333 336 341 345 342 346 345 349 350 351 350 352 352 351 353 355 354 354 355 352 345 339 334 332
305 302 301 304 307 314 318 323 317 323 331 322 325 330 333 338 342 343 350 353 350 348 348 349 351 353 353 354 353 354 355 354 349 344 340 340 337 334
304 305 308 307 308 317 321 319 313 321 319 322 327 332 337 340 342 347 352 353 349 346 351 356 356 353 351 346 348 351 351 350 348 345 342 339 337 333
303 304 308 311 313 320 318 315 316 318 317 323 328 331 335 340 348 353 354 350 348 348 351 353 351 352 348 344 344 349 346 346 345 343 342 339 338 335
303 302 305 309 309 310 311 315 313 312 318 322 326 327 333 346 353 346 343 344 343 343 345 348 347 346 345 344 342 343 343 349 345 348 343 340 337 335
305 305 302 301 304 304 305 305 309 311 316 321 322 331 339 340 339 344 343 343 341 341 346 347 347 345 341 340 340 338 342 346 346 341 341 341 340 339
301 302 300 300 296 298 298 301 302 307 314 318 322 329 334 336 338 340 341 341 340 339 341 344 345 345 343 341 339 338 340 341 342 343 344 342 341 339
295 289 288 291 290 289 292 296 302 304 309 312 316 324 329 330 331 334 337 337 337 338 339 342 344 344 343 341 330 338 343 344 347 346 345 342 340 343
283 285 286 288 289 290 293 296 298 301 306 309 312 316 320 322 323 326 329 332 333 335 337 339 340 340 339 340 345 347 341 347 348 346 344 342 339 341
276 281 283 286 289 290 292 293 296 300 300 302 305 308 311 313 315 318 320 322 325 329 331 333 333 333 333 338 341 344 344 344 344 342 345 345 341 340
274 278 282 285 287 288 289 291 293 295 297 298 298 301 304 306 308 311 314 316 320 323 324 327 329 330 333 337 337 338 342 346 345 344 346 346 346 349
280 280 283 284 284 285 287 288 289 292 293 294 296 298 300 301 305 307 309 311 312 317 320 325 329 331 330 329 330 335 341 346 348 343 338 337 344 352
280 281 283 284 284 284 284 284 285 288 289 290 293 295 297 297 301 306 307 308 309 313 317 320 323 326 325 326 329 334 337 341 346 346 346 346 337 323